Regional Weather Roundup
Issued by NWS

Home | Current Version | Previous Version | Graphics & Text | Print | Product List | Glossary On
Versions: 1 2 3 4 5 6 7 8 9 10 11 12 13 14 15 16 17 18 19 20 21 22 23 24 25 26 27 28 29 30 31 32 33 34 35 36 37 38 39 40 41 42 43 44 45 46 47 48 49 50
000
ASUS43 KFSD 231110
RWRSD

WEATHER ROUNDUP FOR SOUTH DAKOTA
NATIONAL WEATHER SERVICE SIOUX FALLS SD
600 AM CDT WED JUL 23 2014

NOTE: "FAIR" INDICATES FEW OR NO CLOUDS BELOW 12,000 FEET WITH NO
SIGNIFICANT WEATHER AND/OR OBSTRUCTIONS TO VISIBILITY.


SDZ001>005-009-010-012>017-231200-
NORTHWEST AND NORTH CENTRAL SOUTH DAKOTA

CITY           SKY/WX    TMP DP  RH WIND       PRES   REMARKS
BUFFALO          N/A     60  57  89 NE5       30.17R
FAITH            N/A     63  60  90 E9        30.23S
MOBRIDGE       CLEAR     62  58  86 E8        30.24R
$$

SDZ012>016-024>037-041>051-057-063-072>074-231200-
SOUTHWEST AND SOUTH CENTRAL SOUTH DAKOTA

CITY           SKY/WX    TMP DP  RH WIND       PRES   REMARKS
RAPID CTY ARPT PTCLDY    66  57  72 CALM      30.25F
PIERRE         CLOUDY    65  60  84 E13       30.23R
CUSTER         CLEAR     57  53  86 W3        30.41S
ELLSWORTH AFB  MOCLDY    68  57  69 SW12      30.25S
PHILIP         CLOUDY    67  60  78 E8        30.19R
PINE RIDGE     MOCLDY    65  55  70 E9        30.26F
WINNER         FAIR      65  59  81 SW6       30.29R
$$

SDZ004>011-016>023-039-040-231200-
NORTHEAST SOUTH DAKOTA

CITY           SKY/WX    TMP DP  RH WIND       PRES   REMARKS
ABERDEEN       PTCLDY    56  55  97 NE3       30.28R
WATERTOWN      CLEAR     55  53  93 N3        30.31R
SISSETON         N/A     56  55  97 CALM      30.28R
$$

SDZ017-020-022-023-036>040-048>070-231200-
SOUTHEAST SOUTH DAKOTA

CITY           SKY/WX    TMP DP  RH WIND       PRES   REMARKS
SIOUX FALLS    PTCLDY    58  54  86 N5        30.27R
HURON          PTCLDY    60  56  86 E3        30.27R
CHAMBERLAIN    CLOUDY    61  58  90 E6        30.28R
MITCHELL       MOCLDY    62  58  86 CALM      30.26R
YANKTON        PTCLDY    61  55  82 NE7       30.25S
$$

ABBREVIATIONS USED IN REMARKS
   TC - TEMPERATURE IN CELSIUS
  WCI - WIND CHILL INDEX
   HX - HEAT INDEX
  VSB - VISIBILITY



USA.gov is the U.S. government's official web portal to all federal, state and local government web resources and services.